Location: Unspecified
(44.0704°N, 88.6889°W)
Time: 19:00:24
(UTC+02:00)

Transit 2A - Pass Details

Date: 26 June 2019
Orbit: 595 x 964 km, 66.7° (Epoch: 22 July)

Event Time Altitude Azimuth Distance (km) Brightness Sun altitude
Rises 15:35:59 0° 329° (NNW) 3,445 9.1 33.4°
Reaches altitude 10° 15:38:37 10° 333° (NNW) 2,448 8.5 33.9°
Maximum altitude 15:44:11 64° 55° (NE) 850 7.3 34.9°
Drops below altitude 10° 15:49:09 10° 137° (SE) 2,184 9.1 35.7°
Sets 15:51:23 0° 140° (SE) 3,046 9.6 36.1°
